星链-3550 (STARLINK-3550 )

导读 | 豆包AI

STARLINK-3550是美国太空探索技术公司(SpaceX)星链(Starlink)星座中的卫星,于2022年4月29日发射。作为星链星座组网卫星,它承担着为全球提供高速互联网服务的任务,主要服务偏远地区网络覆盖,并支持航海、航空等移动场景的联网需求,助力SpaceX完成低轨宽带星座的布局。

Basic Information
目录编号:
52373
目录名称:
STARLINK-3550
国际标识:
2022-045AU
轨道中心:
EARTH
卫星名称:
星链-3550
卫星全名:
星链-3550 (STARLINK-3550 )
卫星状态:
在轨 (已飞行1416 天)
发射日期:
2022-04-29 UTC
国别 :
美国 (US)
星等 :
--
Orbit Information
数据来源 国际轨道数据 AOE轨道数据
星历时间 2026-03-14T20:25:56+0800
12小时前
查看轨道信息
2026-03-11T09:00:00+0800
4天前
查看轨道信息
半长轴 6917.873km 6917.87km
偏心率 0.0000993 0.0000764
轨道倾角 53.215° 53.212°
近地点辐角 81.030° 40.408°
升交点赤经 167.448° 183.053°
平近点角 279.081° 146.530°
近地点 539.049km 539.204km
远地点 540.423km 540.262km
周期 95.437分钟 95.437分钟
每日圈数 15.088425 15.088435
Detailed Information
固有亮度:
5
最大亮度:
2.5
卫星平台:
Starlink v1.5
覆盖范围:
全球
运营商:
太空探索技术公司
运营商所在国:
美国
制造商(研发单位):
太空探索技术公司
制造商所在国:
美国
使用方式:
暂无
Satellite Introduction
星链(Starlink)计划是由太空探索技术公司(SpaceX)提出的一个巨型低轨卫星互联网星座项目,计划在2019年至2024年间在太空搭建由约1.2万颗卫星组成的“星链”网络,其中1584颗将部署在地球上空550千米处的近地轨道,并从2020年开始工作。该卫星仍在工作。
2D Orbit Map
3D Orbit Map
Orbit Altitude Analysis Chart
Orbit Inclination Analysis Chart
Orbit Comprehensive Analysis Chart
View Comprehensive Chart